Year,Month,Day,Hour,Minute,Value (Times are PST for temperature in C)
2018,11,28,00,00,5.40
2018,11,28,00,01,5.60
2018,11,28,00,02,5.70
2018,11,28,00,03,5.70
2018,11,28,00,04,5.70
2018,11,28,00,05,5.80
2018,11,28,00,06,5.80
2018,11,28,00,07,5.80
2018,11,28,00,08,5.80
2018,11,28,00,09,5.80
2018,11,28,00,10,5.80
2018,11,28,00,11,5.80
2018,11,28,00,12,5.80
2018,11,28,00,13,5.90
2018,11,28,00,14,6.00
2018,11,28,00,15,6.00
2018,11,28,00,16,6.10
2018,11,28,00,17,6.10
2018,11,28,00,18,6.10
2018,11,28,00,19,6.00
2018,11,28,00,20,6.00
2018,11,28,00,21,5.90
2018,11,28,00,22,5.80
2018,11,28,00,23,5.70
2018,11,28,00,24,5.70
2018,11,28,00,25,5.60
2018,11,28,00,26,5.60
2018,11,28,00,27,5.50
2018,11,28,00,28,5.50
2018,11,28,00,29,5.50
2018,11,28,00,30,5.50
2018,11,28,00,31,5.60
2018,11,28,00,32,5.50
2018,11,28,00,33,5.50
2018,11,28,00,34,5.60
2018,11,28,00,35,5.60
2018,11,28,00,36,5.60
2018,11,28,00,37,5.60
2018,11,28,00,38,5.60
2018,11,28,00,39,5.70
2018,11,28,00,40,5.70
2018,11,28,00,41,5.80
2018,11,28,00,42,5.80
2018,11,28,00,43,5.90
2018,11,28,00,44,6.00
2018,11,28,00,45,6.00
2018,11,28,00,46,6.10
2018,11,28,00,47,6.20
2018,11,28,00,48,6.20
2018,11,28,00,49,6.30
2018,11,28,00,50,6.40
2018,11,28,00,51,6.40
2018,11,28,00,52,6.50
2018,11,28,00,53,6.50
2018,11,28,00,54,6.60
2018,11,28,00,55,6.60
2018,11,28,00,56,6.60
2018,11,28,00,57,6.60
2018,11,28,00,58,6.50
2018,11,28,00,59,6.50
2018,11,28,01,00,6.50
2018,11,28,01,01,6.40
2018,11,28,01,02,6.40
2018,11,28,01,03,6.40
2018,11,28,01,04,6.50
2018,11,28,01,05,6.50
2018,11,28,01,06,6.50
2018,11,28,01,07,6.50
2018,11,28,01,08,6.50
2018,11,28,01,09,6.50
2018,11,28,01,10,6.40
2018,11,28,01,11,6.50
2018,11,28,01,12,6.50
2018,11,28,01,13,6.50
2018,11,28,01,14,6.50
2018,11,28,01,15,6.50
2018,11,28,01,16,6.50
2018,11,28,01,17,6.50
2018,11,28,01,18,6.50
2018,11,28,01,19,6.40
2018,11,28,01,20,6.40
2018,11,28,01,21,6.30
2018,11,28,01,22,6.30
2018,11,28,01,23,6.30
2018,11,28,01,24,6.30
2018,11,28,01,25,6.30
2018,11,28,01,26,6.20
2018,11,28,01,27,6.20
2018,11,28,01,28,6.20
2018,11,28,01,29,6.20
2018,11,28,01,30,6.20
2018,11,28,01,31,6.20
2018,11,28,01,32,6.20
2018,11,28,01,33,6.10
2018,11,28,01,34,6.10
2018,11,28,01,35,6.10
2018,11,28,01,36,6.20
2018,11,28,01,37,6.20
2018,11,28,01,38,6.20
2018,11,28,01,39,6.20
2018,11,28,01,40,6.20
2018,11,28,01,41,6.20
2018,11,28,01,42,6.20
2018,11,28,01,43,6.20
2018,11,28,01,44,6.20
2018,11,28,01,45,6.20
2018,11,28,01,46,6.40
2018,11,28,01,47,6.40
2018,11,28,01,48,6.40
2018,11,28,01,49,6.40
2018,11,28,01,50,6.40
2018,11,28,01,51,6.40
2018,11,28,01,52,6.40
2018,11,28,01,53,6.40
2018,11,28,01,54,6.40
2018,11,28,01,55,6.40
2018,11,28,01,56,6.40
2018,11,28,01,57,6.40
2018,11,28,01,58,6.30
2018,11,28,01,59,6.30
2018,11,28,02,00,6.30
2018,11,28,02,01,6.30
2018,11,28,02,02,6.30
2018,11,28,02,03,6.30
2018,11,28,02,04,6.20
2018,11,28,02,05,6.30
2018,11,28,02,06,6.30
2018,11,28,02,07,6.40
2018,11,28,02,08,6.40
2018,11,28,02,09,6.40
2018,11,28,02,10,6.30
2018,11,28,02,11,6.30
2018,11,28,02,12,6.20
2018,11,28,02,13,6.10
2018,11,28,02,14,6.00
2018,11,28,02,15,6.00
2018,11,28,02,16,5.90
2018,11,28,02,17,5.90
2018,11,28,02,18,5.80
2018,11,28,02,19,5.70
2018,11,28,02,20,5.70
2018,11,28,02,21,5.70
2018,11,28,02,22,5.70
2018,11,28,02,23,5.70
2018,11,28,02,24,5.70
2018,11,28,02,25,5.70
2018,11,28,02,26,5.70
2018,11,28,02,27,5.70
2018,11,28,02,28,5.70
2018,11,28,02,29,5.60
2018,11,28,02,30,5.60
2018,11,28,02,31,5.60
2018,11,28,02,32,5.60
2018,11,28,02,33,5.60
2018,11,28,02,34,5.60
2018,11,28,02,35,5.60
2018,11,28,02,36,5.60
2018,11,28,02,37,5.50
2018,11,28,02,38,5.50
2018,11,28,02,39,5.40
2018,11,28,02,40,5.40
2018,11,28,02,41,5.30
2018,11,28,02,42,5.30
2018,11,28,02,43,5.30
2018,11,28,02,44,5.30
2018,11,28,02,45,5.20
2018,11,28,02,46,5.20
2018,11,28,02,47,5.10
2018,11,28,02,48,5.00
2018,11,28,02,49,5.00
2018,11,28,02,50,4.90
2018,11,28,02,51,4.90
2018,11,28,02,52,4.90
2018,11,28,02,53,4.80
2018,11,28,02,54,4.80
2018,11,28,02,55,4.80
2018,11,28,02,56,4.80
2018,11,28,02,57,4.80
2018,11,28,02,58,4.80
2018,11,28,02,59,4.80
2018,11,28,03,00,4.80
2018,11,28,03,01,4.70
2018,11,28,03,02,4.70
2018,11,28,03,03,4.70
2018,11,28,03,04,4.70
2018,11,28,03,05,4.70
2018,11,28,03,06,4.60
2018,11,28,03,07,4.60
2018,11,28,03,08,4.60
2018,11,28,03,09,4.60
2018,11,28,03,10,4.60
2018,11,28,03,11,4.60
2018,11,28,03,12,4.60
2018,11,28,03,13,4.60
2018,11,28,03,14,4.60
2018,11,28,03,15,4.60
2018,11,28,03,16,4.60
2018,11,28,03,17,4.60
2018,11,28,03,18,4.70
2018,11,28,03,19,4.70
2018,11,28,03,20,4.70
2018,11,28,03,21,4.70
2018,11,28,03,22,4.60
2018,11,28,03,23,4.60
2018,11,28,03,24,4.50
2018,11,28,03,25,4.50
2018,11,28,03,26,4.40
2018,11,28,03,27,4.40
2018,11,28,03,28,4.40
2018,11,28,03,29,4.40
2018,11,28,03,30,4.50
2018,11,28,03,31,4.50
2018,11,28,03,32,4.60
2018,11,28,03,33,4.60
2018,11,28,03,34,4.60
2018,11,28,03,35,4.60
2018,11,28,03,36,4.50
2018,11,28,03,37,4.50
2018,11,28,03,38,4.40
2018,11,28,03,39,4.40
2018,11,28,03,40,4.40
2018,11,28,03,41,4.40
2018,11,28,03,42,4.40
2018,11,28,03,43,4.30
2018,11,28,03,44,4.30
2018,11,28,03,45,4.30
2018,11,28,03,46,4.30
2018,11,28,03,47,4.40
2018,11,28,03,48,4.50
2018,11,28,03,49,4.50
2018,11,28,03,50,4.50
2018,11,28,03,51,4.60
2018,11,28,03,52,4.60
2018,11,28,03,53,4.60
2018,11,28,03,54,4.60
2018,11,28,03,55,4.60
2018,11,28,03,56,4.70
2018,11,28,03,57,4.70
2018,11,28,03,58,4.60
2018,11,28,03,59,4.60
2018,11,28,04,00,4.50
2018,11,28,04,01,4.50
2018,11,28,04,02,4.50
2018,11,28,04,03,4.40
2018,11,28,04,04,4.40
2018,11,28,04,05,4.40
2018,11,28,04,06,4.50
2018,11,28,04,07,4.50
2018,11,28,04,08,4.50
2018,11,28,04,09,4.60
2018,11,28,04,10,4.60
2018,11,28,04,11,4.70
2018,11,28,04,12,4.70
2018,11,28,04,13,4.70
2018,11,28,04,14,4.70
2018,11,28,04,15,4.80
2018,11,28,04,16,4.80
2018,11,28,04,17,4.80
2018,11,28,04,18,4.80
2018,11,28,04,19,4.80
2018,11,28,04,20,4.80
2018,11,28,04,21,4.80
2018,11,28,04,22,4.80
2018,11,28,04,23,4.70
2018,11,28,04,24,4.60
2018,11,28,04,25,4.60
2018,11,28,04,26,4.60
2018,11,28,04,27,4.60
2018,11,28,04,28,4.60
2018,11,28,04,29,4.60
2018,11,28,04,30,4.60
2018,11,28,04,31,4.60
2018,11,28,04,32,4.50
2018,11,28,04,33,4.50
2018,11,28,04,34,4.40
2018,11,28,04,35,4.40
2018,11,28,04,36,4.40
2018,11,28,04,37,4.40
2018,11,28,04,38,4.30
2018,11,28,04,39,4.30
2018,11,28,04,40,4.30
2018,11,28,04,41,4.30
2018,11,28,04,42,4.30
2018,11,28,04,43,4.30
2018,11,28,04,44,4.30
2018,11,28,04,45,4.30
2018,11,28,04,46,4.40
2018,11,28,04,47,4.40
2018,11,28,04,48,4.40
2018,11,28,04,49,4.40
2018,11,28,04,50,4.30
2018,11,28,04,51,4.40
2018,11,28,04,52,4.30
2018,11,28,04,53,4.30
2018,11,28,04,54,4.30
2018,11,28,04,55,4.30
2018,11,28,04,56,4.30
2018,11,28,04,57,4.40
2018,11,28,04,58,4.50
2018,11,28,04,59,4.60
2018,11,28,05,00,4.60
2018,11,28,05,01,4.60
2018,11,28,05,02,4.70
2018,11,28,05,03,4.70
2018,11,28,05,04,4.80
2018,11,28,05,05,4.80
2018,11,28,05,06,4.80
2018,11,28,05,07,4.80
2018,11,28,05,08,4.80
2018,11,28,05,09,4.80
2018,11,28,05,10,4.70
2018,11,28,05,11,4.70
2018,11,28,05,12,4.70
2018,11,28,05,13,4.70
2018,11,28,05,14,4.60
2018,11,28,05,15,4.50
2018,11,28,05,16,4.50
2018,11,28,05,17,4.40
2018,11,28,05,18,4.40
2018,11,28,05,19,4.50
2018,11,28,05,20,4.50
2018,11,28,05,21,4.60
2018,11,28,05,22,4.60
2018,11,28,05,23,4.60
2018,11,28,05,24,4.60
2018,11,28,05,25,4.60
2018,11,28,05,26,4.60
2018,11,28,05,27,4.50
2018,11,28,05,28,4.50
2018,11,28,05,29,4.50
2018,11,28,05,30,4.50
2018,11,28,05,31,4.60
2018,11,28,05,32,4.60
2018,11,28,05,33,4.60
2018,11,28,05,34,4.60
2018,11,28,05,35,4.50
2018,11,28,05,36,4.50
2018,11,28,05,37,4.50
2018,11,28,05,38,4.40
2018,11,28,05,39,4.40
2018,11,28,05,40,4.40
2018,11,28,05,41,4.40
2018,11,28,05,42,4.40
2018,11,28,05,43,4.40
2018,11,28,05,44,4.40
2018,11,28,05,45,4.50
2018,11,28,05,46,4.50
2018,11,28,05,47,4.50
2018,11,28,05,48,4.50
2018,11,28,05,49,4.50
2018,11,28,05,50,4.50
2018,11,28,05,51,4.60
2018,11,28,05,52,4.70
2018,11,28,05,53,4.70
2018,11,28,05,54,4.70
2018,11,28,05,55,4.70
2018,11,28,05,56,4.70
2018,11,28,05,57,4.60
2018,11,28,05,58,4.70
2018,11,28,05,59,4.70
2018,11,28,06,00,4.70
2018,11,28,06,01,4.70
2018,11,28,06,02,4.70
2018,11,28,06,03,4.60
2018,11,28,06,04,4.60
2018,11,28,06,05,4.60
2018,11,28,06,06,4.60
2018,11,28,06,07,4.60
2018,11,28,06,08,4.60
2018,11,28,06,09,4.50
2018,11,28,06,10,4.40
2018,11,28,06,11,4.30
2018,11,28,06,12,4.30
2018,11,28,06,13,4.30
2018,11,28,06,14,4.20
2018,11,28,06,15,4.20
2018,11,28,06,16,4.20
2018,11,28,06,17,4.20
2018,11,28,06,18,4.20
2018,11,28,06,19,4.10
2018,11,28,06,20,4.10
2018,11,28,06,21,4.10
2018,11,28,06,22,4.10
2018,11,28,06,23,4.20
2018,11,28,06,24,4.20
2018,11,28,06,25,4.30
2018,11,28,06,26,4.30
2018,11,28,06,27,4.30
2018,11,28,06,28,4.30
2018,11,28,06,29,4.30
2018,11,28,06,30,4.30
2018,11,28,06,31,4.30
2018,11,28,06,32,4.30
2018,11,28,06,33,4.30
2018,11,28,06,34,4.30
2018,11,28,06,35,4.30
2018,11,28,06,36,4.30
2018,11,28,06,37,4.30
2018,11,28,06,38,4.40
2018,11,28,06,39,4.50
2018,11,28,06,40,4.50
2018,11,28,06,41,4.50
2018,11,28,06,42,4.50
2018,11,28,06,43,4.40
2018,11,28,06,44,4.30
2018,11,28,06,45,4.30
2018,11,28,06,46,4.20
2018,11,28,06,47,4.20
2018,11,28,06,48,4.20
2018,11,28,06,49,4.20
2018,11,28,06,50,4.10
2018,11,28,06,51,4.00
2018,11,28,06,52,3.90
2018,11,28,06,53,3.80
2018,11,28,06,54,3.80
2018,11,28,06,55,3.70
2018,11,28,06,56,3.70
2018,11,28,06,57,3.60
2018,11,28,06,58,3.60
2018,11,28,06,59,3.60
2018,11,28,07,00,3.60
2018,11,28,07,01,3.60
2018,11,28,07,02,3.60
2018,11,28,07,03,3.60
2018,11,28,07,04,3.60
2018,11,28,07,05,3.60
2018,11,28,07,06,3.60
2018,11,28,07,07,3.60
2018,11,28,07,08,3.60
2018,11,28,07,09,3.60
2018,11,28,07,10,3.60
2018,11,28,07,11,3.70
2018,11,28,07,12,3.70
2018,11,28,07,13,3.70
2018,11,28,07,14,3.80
2018,11,28,07,15,3.80
2018,11,28,07,16,3.80
2018,11,28,07,17,3.80
2018,11,28,07,18,3.70
2018,11,28,07,19,3.70
2018,11,28,07,20,3.70
2018,11,28,07,21,3.70
2018,11,28,07,22,3.70
2018,11,28,07,23,3.60
2018,11,28,07,24,3.60
2018,11,28,07,25,3.60
2018,11,28,07,26,3.60
2018,11,28,07,27,3.60
2018,11,28,07,28,3.60
2018,11,28,07,29,3.60
2018,11,28,07,30,3.70
2018,11,28,07,31,3.70
2018,11,28,07,32,3.80
2018,11,28,07,33,3.80
2018,11,28,07,34,3.90
2018,11,28,07,35,3.90
2018,11,28,07,36,3.90
2018,11,28,07,37,3.90
2018,11,28,07,38,3.90
2018,11,28,07,39,3.90
2018,11,28,07,40,4.00
2018,11,28,07,41,4.10
2018,11,28,07,42,4.10
2018,11,28,07,43,4.10
2018,11,28,07,44,4.10
2018,11,28,07,45,4.10
2018,11,28,07,46,4.10
2018,11,28,07,47,4.10
2018,11,28,07,48,4.10
2018,11,28,07,49,4.10
2018,11,28,07,50,4.10
2018,11,28,07,51,4.00
2018,11,28,07,52,4.00
2018,11,28,07,53,3.90
2018,11,28,07,54,3.90
2018,11,28,07,55,3.80
2018,11,28,07,56,3.80
2018,11,28,07,57,3.80
2018,11,28,07,58,3.90
2018,11,28,07,59,3.90
2018,11,28,08,00,3.80
2018,11,28,08,01,3.80
2018,11,28,08,02,3.80
2018,11,28,08,03,3.70
2018,11,28,08,04,3.70
2018,11,28,08,05,3.70
2018,11,28,08,06,3.70
2018,11,28,08,07,3.80
2018,11,28,08,08,3.80
2018,11,28,08,09,3.90
2018,11,28,08,10,3.90
2018,11,28,08,11,3.90
2018,11,28,08,12,3.90
2018,11,28,08,13,3.90
2018,11,28,08,14,4.00
2018,11,28,08,15,4.00
2018,11,28,08,16,4.00
2018,11,28,08,17,4.00
2018,11,28,08,18,4.00
2018,11,28,08,19,3.90
2018,11,28,08,20,3.90
2018,11,28,08,21,3.80
2018,11,28,08,22,3.70
2018,11,28,08,23,3.70
2018,11,28,08,24,3.60
2018,11,28,08,25,3.60
2018,11,28,08,26,3.60
2018,11,28,08,27,3.60
2018,11,28,08,28,3.50
2018,11,28,08,29,3.50
2018,11,28,08,30,3.40
2018,11,28,08,31,3.40
2018,11,28,08,32,3.50
2018,11,28,08,33,3.50
2018,11,28,08,34,3.60
2018,11,28,08,35,3.60
2018,11,28,08,36,3.60
2018,11,28,08,37,3.70
2018,11,28,08,38,3.70
2018,11,28,08,39,3.70
2018,11,28,08,40,3.70
2018,11,28,08,41,3.70
2018,11,28,08,42,3.70
2018,11,28,08,43,3.70
2018,11,28,08,44,3.70
2018,11,28,08,45,3.70
2018,11,28,08,46,3.70
2018,11,28,08,47,3.60
2018,11,28,08,48,3.70
2018,11,28,08,49,3.70
2018,11,28,08,50,3.70
2018,11,28,08,51,3.80
2018,11,28,08,52,3.80
2018,11,28,08,53,3.80
2018,11,28,08,54,3.80
2018,11,28,08,55,3.90
2018,11,28,08,56,3.90
2018,11,28,08,57,3.90
2018,11,28,08,58,4.00
2018,11,28,08,59,4.10
2018,11,28,09,00,4.10
2018,11,28,09,01,4.20
2018,11,28,09,02,4.20
2018,11,28,09,03,4.20
2018,11,28,09,04,4.20
2018,11,28,09,05,4.20
2018,11,28,09,06,4.30
2018,11,28,09,07,4.30
2018,11,28,09,08,4.30
2018,11,28,09,09,4.20
2018,11,28,09,10,4.10
2018,11,28,09,11,4.00
2018,11,28,09,12,3.90
2018,11,28,09,13,3.90
2018,11,28,09,14,3.80
2018,11,28,09,15,3.70
2018,11,28,09,16,3.70
2018,11,28,09,17,3.70
2018,11,28,09,18,3.60
2018,11,28,09,19,3.60
2018,11,28,09,20,3.60
2018,11,28,09,21,3.60
2018,11,28,09,22,3.70
2018,11,28,09,23,3.70
2018,11,28,09,24,3.70
2018,11,28,09,25,3.70
2018,11,28,09,26,3.80
2018,11,28,09,27,3.80
2018,11,28,09,28,3.80
2018,11,28,09,29,3.80
2018,11,28,09,30,3.80
2018,11,28,09,31,3.80
2018,11,28,09,32,3.80
2018,11,28,09,33,3.80
2018,11,28,09,34,3.80
2018,11,28,09,35,3.70
2018,11,28,09,36,3.70
2018,11,28,09,37,3.70
2018,11,28,09,38,3.70
2018,11,28,09,39,3.60
2018,11,28,09,40,3.60
2018,11,28,09,41,3.60
2018,11,28,09,42,3.60
2018,11,28,09,43,3.60
2018,11,28,09,44,3.60
2018,11,28,09,45,3.60
2018,11,28,09,46,3.70
2018,11,28,09,47,3.60
2018,11,28,09,48,3.70
2018,11,28,09,49,3.70
2018,11,28,09,50,3.70
2018,11,28,09,51,3.70
2018,11,28,09,52,3.70
2018,11,28,09,53,3.70
2018,11,28,09,54,3.70
2018,11,28,09,55,3.80
2018,11,28,09,56,3.80
2018,11,28,09,57,3.80
2018,11,28,09,58,3.90
2018,11,28,09,59,3.90
2018,11,28,10,00,4.00
2018,11,28,10,01,4.10
2018,11,28,10,02,4.10
2018,11,28,10,03,4.20
2018,11,28,10,04,4.20
2018,11,28,10,05,4.20
2018,11,28,10,06,4.30
2018,11,28,10,07,4.30
2018,11,28,10,08,4.30
2018,11,28,10,09,4.30
2018,11,28,10,10,4.30
2018,11,28,10,11,4.30
2018,11,28,10,12,4.30
2018,11,28,10,13,4.30
2018,11,28,10,14,4.30
2018,11,28,10,15,4.30
2018,11,28,10,16,4.30
2018,11,28,10,17,4.30
2018,11,28,10,18,4.30
2018,11,28,10,19,4.30
2018,11,28,10,20,4.30
2018,11,28,10,21,4.30
2018,11,28,10,22,4.30
2018,11,28,10,23,4.30
2018,11,28,10,24,4.30
2018,11,28,10,25,4.30
2018,11,28,16,38,7.30
2018,11,28,16,39,7.30
2018,11,28,16,40,7.30
2018,11,28,16,41,7.30
2018,11,28,16,42,7.30
2018,11,28,16,43,7.30
2018,11,28,16,44,7.30
2018,11,28,16,45,7.30
2018,11,28,16,46,7.30
2018,11,28,16,47,7.30
2018,11,28,16,48,7.30
2018,11,28,16,49,7.30
2018,11,28,16,50,7.30
2018,11,28,16,51,7.30
2018,11,28,16,52,7.30
2018,11,28,16,53,7.30
2018,11,28,16,54,7.30
2018,11,28,16,55,7.30
2018,11,28,16,56,7.30
2018,11,28,16,57,7.30
2018,11,28,16,58,7.30
2018,11,28,16,59,7.30
2018,11,28,17,00,7.30
2018,11,28,17,01,7.30
2018,11,28,17,02,7.20
2018,11,28,17,03,7.30
2018,11,28,17,04,7.20
2018,11,28,17,05,7.30
2018,11,28,17,06,7.20
2018,11,28,17,07,7.30
2018,11,28,17,08,7.20
2018,11,28,17,09,7.20
2018,11,28,17,10,7.30
2018,11,28,17,11,7.30
2018,11,28,17,12,7.20
2018,11,28,17,13,7.30
2018,11,28,17,14,7.20
2018,11,28,17,15,7.30
2018,11,28,17,16,7.20
2018,11,28,17,17,7.30
2018,11,28,17,18,7.20
2018,11,28,17,19,7.20
2018,11,28,17,20,7.20
2018,11,28,17,21,7.20
2018,11,28,17,22,7.20
2018,11,28,17,23,7.20
2018,11,28,17,24,7.20
2018,11,28,17,25,7.20
2018,11,28,17,26,7.20
2018,11,28,17,27,7.20
2018,11,28,17,28,7.20
2018,11,28,17,29,7.20
2018,11,28,17,30,7.20
2018,11,28,17,31,7.20
2018,11,28,17,32,7.20
2018,11,28,17,33,7.20
2018,11,28,17,34,7.20
2018,11,28,17,35,7.20
2018,11,28,17,36,7.20
2018,11,28,17,37,7.20
2018,11,28,17,38,7.20
2018,11,28,17,39,7.20
2018,11,28,17,40,7.20
2018,11,28,17,41,7.20
2018,11,28,17,42,7.20
2018,11,28,17,43,7.10
2018,11,28,17,44,7.10
2018,11,28,17,45,7.10
2018,11,28,17,46,7.10
2018,11,28,17,47,7.10
2018,11,28,17,48,7.10
2018,11,28,17,49,7.10
2018,11,28,17,50,7.10
2018,11,28,17,51,7.10
2018,11,28,17,52,7.10
2018,11,28,17,53,7.10
2018,11,28,17,54,7.10
2018,11,28,17,55,7.10
2018,11,28,17,56,7.10
2018,11,28,17,57,7.10
2018,11,28,17,58,7.10
2018,11,28,17,59,7.10
2018,11,28,18,00,7.10
2018,11,28,18,01,7.10
2018,11,28,18,02,7.10
2018,11,28,18,03,7.10
2018,11,28,18,04,7.10
2018,11,28,18,05,7.10
2018,11,28,18,06,7.10
2018,11,28,18,07,7.10
2018,11,28,18,08,7.10
2018,11,28,18,09,7.10
2018,11,28,18,10,7.10
2018,11,28,18,11,7.10
2018,11,28,18,12,7.10
2018,11,28,18,13,7.10
2018,11,28,18,14,7.10
2018,11,28,18,15,7.00
2018,11,28,18,16,7.00
2018,11,28,18,17,7.00
2018,11,28,18,18,7.00
2018,11,28,18,19,7.00
2018,11,28,18,20,7.00
2018,11,28,18,21,7.00
2018,11,28,18,22,7.00
2018,11,28,18,23,7.00
2018,11,28,18,24,7.00
2018,11,28,18,25,7.00
2018,11,28,18,26,7.00
2018,11,28,18,27,6.90
2018,11,28,18,28,6.90
2018,11,28,18,29,6.90
2018,11,28,18,30,6.90
2018,11,28,18,31,6.90
2018,11,28,18,32,6.90
2018,11,28,18,33,6.90
2018,11,28,18,34,6.90
2018,11,28,18,35,6.90
2018,11,28,18,36,6.90
2018,11,28,18,37,6.90
2018,11,28,18,38,6.90
2018,11,28,18,39,6.90
2018,11,28,18,40,6.90
2018,11,28,18,41,6.90
2018,11,28,18,42,6.90
2018,11,28,18,43,6.90
2018,11,28,18,44,6.90
2018,11,28,18,45,6.90
2018,11,28,18,46,6.90
2018,11,28,18,47,6.90
2018,11,28,18,48,6.90
2018,11,28,18,49,6.90
2018,11,28,18,50,6.90
2018,11,28,18,51,6.90
2018,11,28,18,52,6.90
2018,11,28,18,53,6.90
2018,11,28,18,54,6.90
2018,11,28,18,55,6.90
2018,11,28,18,56,6.90
2018,11,28,18,57,6.80
2018,11,28,18,58,6.80
2018,11,28,18,59,6.80
2018,11,28,19,00,6.80
2018,11,28,19,01,6.80
2018,11,28,19,02,6.80
2018,11,28,19,03,6.80
2018,11,28,19,04,6.80
2018,11,28,19,05,6.80
2018,11,28,19,06,6.80
2018,11,28,19,07,6.80
2018,11,28,19,08,6.80
2018,11,28,19,09,6.80
2018,11,28,19,10,6.80
2018,11,28,19,11,6.80
2018,11,28,19,12,6.80
2018,11,28,19,13,6.80
2018,11,28,19,14,6.80
2018,11,28,19,15,6.80
2018,11,28,19,16,6.80
2018,11,28,19,17,6.80
2018,11,28,19,18,6.80
2018,11,28,19,19,6.80
2018,11,28,19,20,6.80
2018,11,28,19,21,6.80
2018,11,28,19,22,6.80
2018,11,28,19,23,6.80
2018,11,28,19,24,6.80
2018,11,28,19,25,6.80
2018,11,28,19,26,6.80
2018,11,28,19,27,6.80
2018,11,28,19,28,6.80
2018,11,28,19,29,6.80
2018,11,28,19,30,6.80
2018,11,28,19,31,6.80
2018,11,28,19,32,6.80
2018,11,28,19,33,6.80
2018,11,28,19,34,6.80
2018,11,28,19,35,6.80
2018,11,28,19,36,6.80
2018,11,28,19,37,6.80
2018,11,28,19,38,6.80
2018,11,28,19,39,6.80
2018,11,28,19,40,6.70
2018,11,28,19,41,6.70
2018,11,28,19,42,6.70
2018,11,28,19,43,6.70
2018,11,28,19,44,6.70
2018,11,28,19,45,6.70
2018,11,28,19,46,6.70
2018,11,28,19,47,6.70
2018,11,28,19,48,6.70
2018,11,28,19,49,6.70
2018,11,28,19,50,6.70
2018,11,28,19,51,6.70
2018,11,28,19,52,6.70
2018,11,28,19,53,6.70
2018,11,28,19,54,6.70
2018,11,28,19,55,6.70
2018,11,28,19,56,6.70
2018,11,28,19,57,6.70
2018,11,28,19,58,6.70
2018,11,28,19,59,6.70
2018,11,28,20,00,6.70
2018,11,28,20,01,6.70
2018,11,28,20,02,6.70
2018,11,28,20,03,6.70
2018,11,28,20,04,6.70
2018,11,28,20,05,6.60
2018,11,28,20,06,6.60
2018,11,28,20,07,6.60
2018,11,28,20,08,6.60
2018,11,28,20,09,6.60
2018,11,28,20,10,6.60
2018,11,28,20,11,6.60
2018,11,28,20,12,6.60
2018,11,28,20,13,6.60
2018,11,28,20,14,6.60
2018,11,28,20,15,6.60
2018,11,28,20,16,6.60
2018,11,28,20,17,6.60
2018,11,28,20,18,6.60
2018,11,28,20,19,6.60
2018,11,28,20,20,6.60
2018,11,28,20,21,6.60
2018,11,28,20,22,6.60
2018,11,28,20,23,6.60
2018,11,28,20,24,6.60
2018,11,28,20,25,6.60
2018,11,28,20,26,6.60
2018,11,28,20,27,6.60
2018,11,28,20,28,6.60
2018,11,28,20,29,6.60
2018,11,28,20,30,6.60
2018,11,28,20,31,6.60
2018,11,28,20,32,6.60
2018,11,28,20,33,6.60
2018,11,28,20,34,6.60
2018,11,28,20,35,6.60
2018,11,28,20,36,6.60
2018,11,28,20,37,6.60
2018,11,28,20,38,6.60
2018,11,28,20,39,6.60
2018,11,28,20,40,6.60
2018,11,28,20,41,6.60
2018,11,28,20,42,6.60
2018,11,28,20,43,6.60
2018,11,28,20,44,6.60
2018,11,28,20,45,6.60
2018,11,28,20,46,6.60
2018,11,28,20,47,6.60
2018,11,28,20,48,6.60
2018,11,28,20,49,6.60
2018,11,28,20,50,6.60
2018,11,28,20,51,6.60
2018,11,28,20,52,6.60
2018,11,28,20,53,6.60
2018,11,28,20,54,6.60
2018,11,28,20,55,6.60
2018,11,28,20,56,6.60
2018,11,28,20,57,6.60
2018,11,28,20,58,6.60
2018,11,28,20,59,6.60
2018,11,28,21,00,6.60
2018,11,28,21,01,6.60
2018,11,28,21,02,6.60
2018,11,28,21,03,6.60
2018,11,28,21,04,6.60
2018,11,28,21,05,6.60
2018,11,28,21,06,6.60
2018,11,28,21,07,6.60
2018,11,28,21,08,6.60
2018,11,28,21,09,6.60
2018,11,28,21,10,6.60
2018,11,28,21,11,6.60
2018,11,28,21,12,6.60
2018,11,28,21,13,6.60
2018,11,28,21,14,6.60
2018,11,28,21,15,6.60
2018,11,28,21,16,6.60
2018,11,28,21,17,6.60
2018,11,28,21,18,6.60
2018,11,28,21,19,6.60
2018,11,28,21,20,6.60
2018,11,28,21,21,6.60
2018,11,28,21,22,6.60
2018,11,28,21,23,6.60
2018,11,28,21,24,6.60
2018,11,28,21,25,6.60
2018,11,28,21,26,6.60
2018,11,28,21,27,6.60
2018,11,28,21,28,6.60
2018,11,28,21,29,6.60
2018,11,28,21,30,6.60
2018,11,28,21,31,6.60
2018,11,28,21,32,6.60
2018,11,28,21,33,6.60
2018,11,28,21,34,6.60
2018,11,28,21,35,6.60
2018,11,28,21,36,6.50
2018,11,28,21,37,6.50
2018,11,28,21,38,6.50
2018,11,28,21,39,6.50
2018,11,28,21,40,6.50
2018,11,28,21,41,6.50
2018,11,28,21,42,6.50
2018,11,28,21,43,6.50
2018,11,28,21,44,6.50
2018,11,28,21,45,6.50
2018,11,28,21,46,6.50
2018,11,28,21,47,6.50
2018,11,28,21,48,6.50
2018,11,28,21,49,6.50
2018,11,28,21,50,6.50
2018,11,28,21,51,6.50
2018,11,28,21,52,6.50
2018,11,28,21,53,6.50
2018,11,28,21,54,6.50
2018,11,28,21,55,6.50
2018,11,28,21,56,6.50
2018,11,28,21,57,6.50
2018,11,28,21,58,6.50
2018,11,28,21,59,6.50
2018,11,28,22,00,6.50
2018,11,28,22,01,6.50
2018,11,28,22,02,6.50
2018,11,28,22,03,6.40
2018,11,28,22,04,6.40
2018,11,28,22,05,6.50
2018,11,28,22,06,6.40
2018,11,28,22,07,6.40
2018,11,28,22,08,6.50
2018,11,28,22,09,6.50
2018,11,28,22,10,6.50
2018,11,28,22,11,6.50
2018,11,28,22,12,6.40
2018,11,28,22,13,6.50
2018,11,28,22,14,6.50
2018,11,28,22,15,6.40
2018,11,28,22,16,6.40
2018,11,28,22,17,6.40
2018,11,28,22,18,6.40
2018,11,28,22,19,6.40
2018,11,28,22,20,6.40
2018,11,28,22,21,6.40
2018,11,28,22,22,6.40
2018,11,28,22,23,6.40
2018,11,28,22,24,6.40
2018,11,28,22,25,6.40
2018,11,28,22,26,6.40
2018,11,28,22,27,6.40
2018,11,28,22,28,6.40
2018,11,28,22,29,6.40
2018,11,28,22,30,6.40
2018,11,28,22,31,6.40
2018,11,28,22,32,6.40
2018,11,28,22,33,6.40
2018,11,28,22,34,6.40
2018,11,28,22,35,6.40
2018,11,28,22,36,6.40
2018,11,28,22,37,6.40
2018,11,28,22,38,6.40
2018,11,28,22,39,6.40
2018,11,28,22,40,6.40
2018,11,28,22,41,6.40
2018,11,28,22,42,6.40
2018,11,28,22,43,6.40
2018,11,28,22,44,6.40
2018,11,28,22,45,6.40
2018,11,28,22,46,6.40
2018,11,28,22,47,6.40
2018,11,28,22,48,6.40
2018,11,28,22,49,6.40
2018,11,28,22,50,6.40
2018,11,28,22,51,6.40
2018,11,28,22,52,6.40
2018,11,28,22,53,6.40
2018,11,28,22,54,6.40
2018,11,28,22,55,6.40
2018,11,28,22,56,6.40
2018,11,28,22,57,6.40
2018,11,28,22,58,6.40
2018,11,28,22,59,6.40
2018,11,28,23,00,6.40
2018,11,28,23,01,6.40
2018,11,28,23,02,6.40
2018,11,28,23,03,6.40
2018,11,28,23,04,6.40
2018,11,28,23,05,6.40
2018,11,28,23,06,6.40
2018,11,28,23,07,6.40
2018,11,28,23,08,6.40
2018,11,28,23,09,6.40
2018,11,28,23,10,6.40
2018,11,28,23,11,6.40
2018,11,28,23,12,6.40
2018,11,28,23,13,6.40
2018,11,28,23,14,6.40
2018,11,28,23,15,6.40
2018,11,28,23,16,6.40
2018,11,28,23,17,6.40
2018,11,28,23,18,6.40
2018,11,28,23,19,6.40
2018,11,28,23,20,6.40
2018,11,28,23,21,6.40
2018,11,28,23,22,6.40
2018,11,28,23,23,6.40
2018,11,28,23,24,6.40
2018,11,28,23,25,6.40
2018,11,28,23,26,6.40
2018,11,28,23,27,6.40
2018,11,28,23,28,6.40
2018,11,28,23,29,6.40
2018,11,28,23,30,6.40
2018,11,28,23,31,6.40
2018,11,28,23,32,6.40
2018,11,28,23,33,6.40
2018,11,28,23,34,6.40
2018,11,28,23,35,6.40
2018,11,28,23,36,6.40
2018,11,28,23,37,6.40
2018,11,28,23,38,6.40
2018,11,28,23,39,6.40
2018,11,28,23,40,6.40
2018,11,28,23,41,6.40
2018,11,28,23,42,6.40
2018,11,28,23,43,6.40
2018,11,28,23,44,6.40
2018,11,28,23,45,6.40
2018,11,28,23,46,6.40
2018,11,28,23,47,6.40
2018,11,28,23,48,6.40
2018,11,28,23,49,6.40
2018,11,28,23,50,6.40
2018,11,28,23,51,6.40
2018,11,28,23,52,6.40
2018,11,28,23,53,6.40
2018,11,28,23,54,6.40
2018,11,28,23,55,6.40
2018,11,28,23,56,6.40
2018,11,28,23,57,6.40
2018,11,28,23,58,6.40
2018,11,28,23,59,6.40
